Location: Prague
(50.0830°N, 14.4670°E)
Time: 05:51:39
(UTC+02:00)

DOVE 4 - Pass Details

Date: 06 April 2023
Orbit: 584 x 791 km, 97.8° (Epoch: 29 May)

Event Time Altitude Azimuth Distance (km) Brightness Sun altitude
Rises 01:39:38 0° 1° (N) 3,113 ? -33.1°
Reaches altitude 10° 01:42:53 10° 338° (NNW) 2,142 ? -33.0°
Enters shadow 01:44:56 14° 312° (NW) 1,828 ? -33.0°
